Location: Tel Aviv
(32.0670°N, 34.7670°E)
Time: 12:17:12
(UTC+03:00)

Explorer 11/Cluster Stage 4 - Pass Details

Date: 19 September 2024
Orbit: 464 x 1208 km, 28.8° (Epoch: 06 October)

Event Time Altitude Azimuth Distance (km) Brightness Sun altitude
Rises 08:58:59 0° 272° (W) 3,604 9.5 30.7°
Reaches altitude 10° 09:01:30 10° 268° (W) 2,760 9.0 31.2°
Maximum altitude 09:08:15 57° 192° (SSW) 1,295 8.2 32.6°
Drops below altitude 10° 09:15:55 10° 116° (ESE) 3,119 11.1 34.1°
Sets 09:18:55 0° 112° (ESE) 4,102 11.3 34.6°
